Portada
METAR-TAF:

METAR-TAF

Aeroports :

Casino, Austràlia

latitud: 28-52-39S, longitud: 153-03-07E, altitud: 21 m

Observació

L'informe es va fer fa 44 minuts, a les 00:00 UTC
Vent 4 kt del Oest
Temperatura 25°C
Humitat 89%
Pressió 1017 hPa

METAR: YCAS 020000Z AUTO 28004KT //// // ////// 25/23 Q1017

Hora: 11:44 (00:44 UTC)


TAF: manca

Observacions i pronòstics meteorològics de més de 4000 aeroports (METAR i TAF).

Les estacions disponibles són els punts grocs i vermells al mapa.

Posi el ratolí al punt desitjat per veure el nom de l'estació.

Feu clic per veure les observacions i els pronòstics meteorològics.

Per canviar el mapa: feu clic els botons verds amb una creu de color negre per apropar; al botó verd amb un guió per allunyar la imatge; o en les fletxes verdes per a mapes adjacents.


METAR-TAF: